[[{"header":{"parameterUnit":"m.s-1","parameterCategory":2,"la1":30.2991,"la2":30.254,"lo1":-89.0895,"lo2":-89.0444,"dy":0.0017,"dx":0.0017,"nx":28,"ny":28,"refTime":"2025-01-01T09:00:00:Z","depth":"0","parameterNumber":2,"parameterNumberName":"U-component_of_CURRENTS"},"data":[0,0,0,0,0,0,0,0,0,0,0,0,0,0,0,0,0,0,0,0,0,0,0,0,0,0,0,0,0,0,0,0,0,0,0,0,0,0,0,0,0,0,0,0,0,0,0,0,0,0,0,0,0,0,0,0,0,0,0.3132,0.3133,0,0.3186,0.3186,0.3187,0.321,0.321,0.321,0.321,0.3199,0.3199,0.3198,0,0,0,0,0,0,0,0,0,0,0,0,0,0.3076,0.3077,0.3132,0.3133,0.3134,0.3186,0.3186,0.3187,0.321,0.321,0.321,0.321,0.3199,0.3199,0.3198,0,0,0,0,0,0,0,0,0,0,0,0,0,0.3109,0.3077,0.3132,0.3154,0.3156,0.3186,0.3186,0.3187,0.321,0.321,0.321,0.321,0.3199,0.3199,0.3198,0.3188,0,0,0.3196,0.3196,0,0,0,0,0,0,0,0,0.3107,0.3111,0.3149,0.3152,0.3155,0.3194,0.3163,0.3185,0.321,0.3186,0.321,0.3211,0.3193,0.3193,0.3199,0.3187,0.3187,0.3196,0.3195,0.3195,0.3195,0,0,0,0,0,0,0,0.3105,0.3109,0.315,0.3151,0.3154,0.3171,0.3175,0.3167,0.3184,0.3188,0.3191,0.3202,0.3194,0.32,0.3199,0.3187,0.3196,0.3195,0.3195,0.3194,0.3225,0.3226,0,0,0,0,0,0,0.3103,0.3107,0.3148,0.3152,0.3135,0.3172,0.3176,0.3179,0.3185,0.3188,0.3201,0.3203,0.3201,0.32,0.3198,0.3236,0.3195,0.3194,0.3194,0.3223,0.3225,0.3226,0,0,0,0,0,0,0.3101,0.3106,0.3146,0.3134,0.314,0.3172,0.3175,0.318,0.319,0.3197,0.3198,0.3207,0.3201,0.3199,0.3207,0.3233,0.3194,0.3193,0.3222,0.3224,0.3225,0.3278,0,0,0,0,0,0,0.3099,0.3104,0.3098,0.3133,0.3141,0.3167,0.3175,0.3181,0.3197,0.3199,0.3202,0.3201,0.3201,0.3208,0.3206,0.3232,0.3193,0.322,0.3223,0.3225,0.3275,0.3282,0.3287,0,0,0,0,0,0.3097,0.3083,0.3097,0.3103,0.3133,0.3168,0.3173,0.3195,0.3197,0.3204,0.3213,0.3201,0.3222,0.3208,0.3206,0.3232,0.3219,0.3222,0.3225,0.3272,0.328,0.3287,0,0,0,0,0,0,0.3032,0.3085,0.3102,0.3098,0.3136,0.3173,0.3177,0.3195,0.3207,0.3207,0.3208,0.3209,0.3229,0.3219,0.3204,0.3249,0.3222,0.3224,0.3259,0.3266,0.3272,0.3279,0.3192,0,0,0,0,0,0.3022,0.3037,0.3087,0.3082,0.3104,0.3142,0.3155,0.3177,0.3198,0.3204,0.321,0.322,0.3238,0.3242,0.3249,0.3262,0.3268,0.3281,0.3287,0.3292,0.3297,0.3344,0.3355,0.3235,0.3235,0.3235,0,0,0.299,0.3025,0.3028,0.3073,0.3102,0.314,0.315,0.3176,0.3208,0.3199,0.3227,0.3236,0.3246,0.3274,0.3282,0.3269,0.3327,0.3296,0.33,0.3302,0.3348,0.336,0.337,0.3237,0.3237,0.3236,0,0,0.2958,0.2975,0.2992,0.3031,0.3089,0.3124,0.3135,0.3183,0.3204,0.3236,0.3247,0.3275,0.3285,0.3313,0.3326,0.3366,0.3358,0.3366,0.3403,0.3449,0.3459,0.3469,0.3481,0.3491,0.3371,0.3371,0.3371,0,0.2921,0.2956,0.2997,0.3035,0.3071,0.3121,0.3156,0.3188,0.3231,0.3257,0.325,0.331,0.3312,0.337,0.3389,0.3382,0.3393,0.3374,0.3458,0.3467,0.3476,0.3487,0.3497,0.3374,0.3373,0.3373,0.3373,0,0.2924,0.2953,0.2965,0.3042,0.3079,0.3116,0.3183,0.3218,0.3252,0.329,0.3349,0.3367,0.3407,0.3417,0.3413,0.3482,0.3464,0.346,0.3439,0.3491,0.3499,0.3509,0.3378,0.3377,0.3376,0.3375,0,0,0.285,0.2951,0.2957,0.2998,0.3094,0.3122,0.3189,0.3268,0.3312,0.3359,0.3418,0.3464,0.3481,0.3496,0.3506,0.3545,0.3608,0.3528,0.3529,0.354,0.3691,0.3674,0.3682,0.3623,0.3625,0.3627,0.3669,0,0.285,0.2911,0.2972,0.3033,0.3076,0.3155,0.3211,0.3283,0.3347,0.3411,0.3465,0.3513,0.3511,0.3532,0.3578,0.3606,0.3638,0.3596,0.3639,0.364,0.3619,0.3695,0.3623,0.3655,0.3678,0.368,0.3681,0,0.285,0.2896,0.2951,0.3047,0.3073,0.3113,0.3223,0.3281,0.3392,0.344,0.3518,0.3559,0.3637,0.3614,0.3708,0.3682,0.3689,0.3703,0.3705,0.3678,0.3642,0.3609,0.3672,0.3627,0.3696,0.3695,0.3694,0,0.2792,0.2885,0.2927,0.296,0.3071,0.3107,0.3168,0.328,0.3353,0.3457,0.3521,0.3612,0.3668,0.3712,0.3759,0.3736,0.3846,0.3816,0.3804,0.3801,0.3743,0.3732,0.3768,0.3871,0.3871,0.3871,0.3871,0,0.2779,0.2811,0.2896,0.2917,0.2972,0.3057,0.3129,0.3211,0.334,0.3417,0.3523,0.3608,0.3699,0.378,0.3789,0.3844,0.3877,0.3828,0.3827,0.3757,0.3748,0.3707,0.3682,0.3872,0.3872,0.3872,0.3872,0,0.2716,0.2774,0.2823,0.2917,0.2945,0.2977,0.3109,0.3167,0.3295,0.3403,0.3442,0.3631,0.3733,0.3814,0.3892,0.3891,0.3842,0.3924,0.3824,0.3811,0.3742,0.3723,0.3597,0.3471,0.3917,0.3917,0.3917,0,0.2692,0.2708,0.2795,0.2818,0.2859,0.2921,0.2972,0.3119,0.3192,0.3406,0.3455,0.3623,0.3726,0.387,0.391,0.3949,0.3834,0.3875,0.3821,0.3751,0.3729,0.3566,0.3455,0.3755,0.3754,0.3753,0.3752,0,0.2643,0.267,0.2708,0.2752,0.2795,0.2848,0.2929,0.2994,0.3156,0.3265,0.3418,0.3528,0.3723,0.3782,0.3872,0.3878,0.373,0.3853,0.3819,0.3648,0.3434,0.3307,0.3692,0.3742,0.3743,0.3744,0.3745,0.3745,0.2597,0.2604,0.2645,0.2679,0.2724,0.2753,0.2758,0.2867,0.2968,0.3108,0.3283,0.3416,0.3632,0.3783,0.3761,0.3749,0.3666,0.3672,0.3665,0.3513,0.3359,0.3713,0.3742,0.3743,0.3744,0.3745,0.3745,0,0.2518,0.2535,0.257,0.2595,0.2594,0.2648,0.2709,0.2702,0.2755,0.2958,0.3076,0.3317,0.3448,0.3591,0.371,0.3607,0.34,0.3513,0.3287,0.3191,0.3567,0.3533,0.3471,0.3471,0.3471,0.3471,0.3471,0.3471,0.2476,0.2464,0.248,0.2446,0.2458,0.241,0.2408,0.2436,0.2551,0.2698,0.2851,0.3029,0.3421,0.3679,0.3667,0.3561,0.3264,0.3144,0.3066,0.34,0.3413,0.3426,0.3389,0.3298,0.3298,0.2559,0.2554,0.2551]},{"header":{"parameterUnit":"m.s-1","parameterCategory":2,"la1":30.2991,"la2":30.254,"lo1":-89.0895,"lo2":-89.0444,"dy":0.0017,"dx":0.0017,"nx":28,"ny":28,"refTime":"2025-01-01T09:00:00:Z","depth":"0","parameterNumber":3,"parameterNumberName":"V-component_of_CURRENTS"},"data":[0,0,0,0,0,0,0,0,0,0,0,0,0,0,0,0,0,0,0,0,0,0,0,0,0,0,0,0,0,0,0,0,0,0,0,0,0,0,0,0,0,0,0,0,0,0,0,0,0,0,0,0,0,0,0,0,0,0,-0.0341,-0.0342,0,-0.0412,-0.0413,-0.0414,-0.0467,-0.0468,-0.0468,-0.0468,-0.0552,-0.0554,-0.0556,0,0,0,0,0,0,0,0,0,0,0,0,0,-0.0302,-0.0302,-0.0341,-0.0342,-0.0343,-0.0412,-0.0413,-0.0414,-0.0467,-0.0468,-0.0468,-0.0469,-0.0551,-0.0554,-0.0556,0,0,0,0,0,0,0,0,0,0,0,0,0,-0.0341,-0.0302,-0.0341,-0.0377,-0.0381,-0.0412,-0.0413,-0.0415,-0.0467,-0.0468,-0.0468,-0.0469,-0.0551,-0.0553,-0.0556,-0.0562,0,0,-0.0565,-0.0566,0,0,0,0,0,0,0,0,-0.0339,-0.0343,-0.0371,-0.0374,-0.0379,-0.0431,-0.043,-0.0464,-0.0467,-0.0435,-0.0468,-0.0469,-0.0512,-0.0518,-0.0531,-0.0566,-0.0569,-0.0565,-0.0567,-0.0568,-0.0569,0,0,0,0,0,0,0,-0.0336,-0.034,-0.037,-0.0371,-0.0376,-0.0407,-0.0413,-0.0437,-0.047,-0.0438,-0.0442,-0.0448,-0.0514,-0.0528,-0.0533,-0.057,-0.0565,-0.0567,-0.0569,-0.057,-0.0626,-0.0626,0,0,0,0,0,0,-0.0322,-0.0337,-0.0368,-0.0372,-0.0359,-0.0407,-0.0413,-0.0414,-0.047,-0.0478,-0.0447,-0.045,-0.0523,-0.053,-0.0536,-0.0541,-0.0568,-0.0571,-0.0572,-0.0626,-0.0626,-0.0626,0,0,0,0,0,0,-0.0321,-0.0324,-0.0365,-0.0356,-0.0363,-0.0406,-0.0407,-0.0415,-0.0425,-0.0477,-0.0486,-0.0449,-0.0524,-0.0532,-0.0552,-0.0545,-0.0572,-0.0574,-0.0626,-0.0626,-0.0626,-0.0553,0,0,0,0,0,0,-0.0319,-0.0323,-0.0313,-0.0355,-0.0363,-0.037,-0.0407,-0.0416,-0.0428,-0.0433,-0.0481,-0.049,-0.0525,-0.0548,-0.0555,-0.0549,-0.0576,-0.0627,-0.0626,-0.0626,-0.0556,-0.055,-0.0546,0,0,0,0,0,-0.0318,-0.0294,-0.0312,-0.0316,-0.035,-0.0369,-0.0376,-0.041,-0.0427,-0.0423,-0.046,-0.0488,-0.0551,-0.0549,-0.0558,-0.0553,-0.0627,-0.0626,-0.0626,-0.0558,-0.0551,-0.0546,0,0,0,0,0,0,-0.026,-0.0298,-0.0319,-0.0306,-0.0332,-0.0377,-0.0373,-0.0401,-0.0426,-0.0429,-0.0481,-0.0492,-0.051,-0.0539,-0.0536,-0.0569,-0.0595,-0.0596,-0.0541,-0.0535,-0.053,-0.05,-0.0579,0,0,0,0,0,-0.0245,-0.0246,-0.0286,-0.0274,-0.0284,-0.0328,-0.0339,-0.0363,-0.0394,-0.0406,-0.0443,-0.0482,-0.0515,-0.053,-0.0562,-0.0573,-0.0595,-0.0578,-0.0573,-0.0568,-0.0551,-0.0586,-0.0582,-0.0624,-0.0624,-0.0624,0,0,-0.0221,-0.0241,-0.0241,-0.0264,-0.0287,-0.0286,-0.0336,-0.0342,-0.0345,-0.041,-0.0419,-0.0464,-0.0515,-0.0532,-0.0543,-0.0555,-0.0566,-0.0568,-0.0563,-0.0548,-0.0585,-0.058,-0.0577,-0.0624,-0.0624,-0.0624,0,0,-0.0168,-0.0188,-0.0172,-0.0189,-0.0217,-0.0246,-0.0244,-0.0285,-0.0306,-0.0323,-0.0374,-0.0408,-0.0456,-0.0491,-0.0516,-0.05,-0.0539,-0.0517,-0.0466,-0.05,-0.0496,-0.0493,-0.0504,-0.0503,-0.0513,-0.0513,-0.0513,0,-0.0136,-0.0124,-0.0168,-0.0156,-0.0159,-0.0221,-0.02,-0.023,-0.0273,-0.0283,-0.0313,-0.0388,-0.0434,-0.0457,-0.0459,-0.0487,-0.0506,-0.0483,-0.0491,-0.0489,-0.0487,-0.05,-0.0499,-0.051,-0.051,-0.0511,-0.0511,0,-0.0079,-0.0068,-0.0056,-0.0067,-0.0075,-0.0066,-0.0111,-0.0124,-0.0161,-0.0197,-0.023,-0.0301,-0.0342,-0.0372,-0.0412,-0.0425,-0.0443,-0.0481,-0.0501,-0.0478,-0.0493,-0.0494,-0.0505,-0.0506,-0.0507,-0.0508,0,0,-0.0012,-0.0015,-0.0011,0.0003,-0.0026,-0.0022,-0.0025,-0.0044,-0.0037,-0.0103,-0.0101,-0.0183,-0.0228,-0.0259,-0.0322,-0.0359,-0.0371,-0.0408,-0.0412,-0.0408,-0.0428,-0.0441,-0.0443,-0.0415,-0.0415,-0.0415,-0.0439,0,0.0047,0.0094,0.0071,0.0118,0.0139,0.0091,0.0098,0.007,0.0031,0.0015,-0.0073,-0.01,-0.0184,-0.0203,-0.0254,-0.0339,-0.0371,-0.0359,-0.046,-0.0462,-0.0468,-0.0444,-0.0433,-0.0455,-0.044,-0.044,-0.044,0,0.011,0.0133,0.019,0.0214,0.022,0.0233,0.0238,0.0234,0.0186,0.0154,0.0101,0.0034,-0.0029,-0.0108,-0.023,-0.0219,-0.0309,-0.0383,-0.0387,-0.0421,-0.0476,-0.0479,-0.0457,-0.0649,-0.0442,-0.0442,-0.0441,0,0.0179,0.0219,0.0269,0.0276,0.0288,0.0305,0.0305,0.0277,0.0297,0.0241,0.0251,0.0149,0.0117,-0.0016,-0.0172,-0.0199,-0.0305,-0.0362,-0.0455,-0.0456,-0.0476,-0.0479,-0.0641,-0.0441,-0.0441,-0.0441,-0.0441,0,0.0249,0.0291,0.0307,0.0333,0.0403,0.0378,0.0437,0.0415,0.0413,0.0453,0.0329,0.0346,0.0138,0.0048,-0.0118,-0.0274,-0.0262,-0.0428,-0.0462,-0.045,-0.0451,-0.0643,-0.0773,-0.0442,-0.0442,-0.0442,-0.0442,0,0.0315,0.0322,0.0386,0.0418,0.0436,0.0481,0.0535,0.0578,0.0552,0.0603,0.0597,0.0511,0.039,0.0184,-0.0018,-0.0179,-0.0461,-0.041,-0.037,-0.0399,-0.0668,-0.0794,-0.0996,-0.1075,-0.0506,-0.0506,-0.0507,0,0.0352,0.0392,0.0456,0.0505,0.0522,0.0586,0.0639,0.0643,0.0701,0.0714,0.0759,0.0666,0.0624,0.0326,0.0019,-0.0255,-0.0464,-0.0432,-0.0491,-0.0668,-0.0834,-0.093,-0.0988,-0.0486,-0.0486,-0.0486,-0.0486,0,0.0428,0.0446,0.05,0.0602,0.0669,0.0754,0.0829,0.0905,0.0921,0.0973,0.1028,0.1,0.0713,0.0451,0.006,-0.0157,-0.0581,-0.0443,-0.0646,-0.0841,-0.0937,-0.1032,-0.0475,-0.0487,-0.0487,-0.0487,-0.0487,-0.0487,0.0486,0.0539,0.0612,0.0713,0.0796,0.0908,0.0994,0.1087,0.1202,0.1292,0.1251,0.1249,0.0838,0.0313,-0.0006,-0.0577,-0.0602,-0.0749,-0.0885,-0.0964,-0.1055,-0.0485,-0.053,-0.053,-0.0531,-0.0531,-0.0531,0,0.0563,0.0623,0.072,0.0837,0.0944,0.097,0.1119,0.1211,0.1361,0.1454,0.1504,0.1316,0.0805,0.0264,-0.0494,-0.0918,-0.1092,-0.1174,-0.1322,-0.1358,-0.086,-0.0874,-0.0971,-0.0971,-0.097,-0.097,-0.097,-0.097,0.0605,0.071,0.0759,0.0944,0.1031,0.1177,0.1267,0.14,0.1506,0.1625,0.1645,0.1617,0.1211,-0.0178,-0.1132,-0.1375,-0.1687,-0.1783,-0.1929,-0.1613,-0.1584,-0.1556,-0.1598,-0.1845,-0.1847,-0.2347,-0.2353,-0.2357]}],[{"header":{"parameterUnit":"m.s-1","parameterCategory":2,"la1":30.2991,"la2":30.254,"lo1":-89.0895,"lo2":-89.0444,"dy":0.0017,"dx":0.0017,"nx":28,"ny":28,"refTime":"2025-01-01T09:00:00:Z","depth":"2","parameterNumber":2,"parameterNumberName":"U-component_of_CURRENTS"},"data":[0,0,0,0,0,0,0,0,0,0,0,0,0,0,0,0,0,0,0,0,0,0,0,0,0,0,0,0,0,0,0,0,0,0,0,0,0,0,0,0,0,0,0,0,0,0,0,0,0,0,0,0,0,0,0,0,0,0,0.2879,0.288,0,0.296,0.2961,0.2962,0.3001,0.3,0.3,0.3,0.2993,0.2993,0.2993,0,0,0,0,0,0,0,0,0,0,0,0,0,0.2827,0.2827,0.2879,0.288,0.2881,0.296,0.2962,0.2963,0.3001,0.3,0.3,0.3,0.2994,0.2993,0.2993,0,0,0,0,0,0,0,0,0,0,0,0,0,0.2873,0.2827,0.2879,0.2909,0.2912,0.296,0.2962,0.2963,0.3001,0.3,0.3,0.3,0.2994,0.2993,0.2993,0.2996,0,0,0.2993,0.2993,0,0,0,0,0,0,0,0,0.287,0.2875,0.2903,0.2907,0.2911,0.297,0.2941,0.2969,0.3001,0.2968,0.3,0.3,0.2977,0.2978,0.2996,0.2996,0.2996,0.2993,0.2993,0.2993,0.2993,0,0,0,0,0,0,0,0.2867,0.2872,0.2912,0.2904,0.2909,0.2943,0.2948,0.2947,0.2971,0.2971,0.2973,0.2982,0.2978,0.2996,0.2996,0.2995,0.2993,0.2993,0.2993,0.2993,0.3044,0.3045,0,0,0,0,0,0,0.2852,0.2869,0.2909,0.2914,0.2889,0.2943,0.295,0.2951,0.2973,0.2977,0.2982,0.2983,0.2997,0.2996,0.2996,0.3038,0.2993,0.2993,0.2993,0.3043,0.3044,0.3046,0,0,0,0,0,0,0.2851,0.2855,0.2906,0.2893,0.2902,0.2944,0.2946,0.2953,0.2977,0.2982,0.2985,0.2998,0.2996,0.2996,0.301,0.3036,0.2993,0.2993,0.3041,0.3043,0.3045,0.3098,0,0,0,0,0,0,0.2849,0.2854,0.2855,0.2892,0.2902,0.2933,0.2946,0.2955,0.2981,0.2984,0.2997,0.2996,0.2996,0.301,0.3009,0.3035,0.2993,0.3039,0.3042,0.3044,0.3094,0.3101,0.3107,0,0,0,0,0,0.2846,0.2844,0.2855,0.286,0.2901,0.2933,0.2942,0.2972,0.2982,0.2992,0.301,0.2996,0.3027,0.3011,0.301,0.3036,0.3038,0.3041,0.3044,0.3091,0.31,0.3107,0,0,0,0,0,0,0.2806,0.2849,0.2861,0.2867,0.2898,0.2939,0.2957,0.2975,0.3,0.3005,0.3008,0.3009,0.3034,0.3027,0.3009,0.3061,0.3032,0.3035,0.3068,0.3076,0.3083,0.309,0.2992,0,0,0,0,0,0.2801,0.2818,0.2856,0.2859,0.2881,0.2921,0.294,0.296,0.2986,0.2999,0.3013,0.3029,0.3047,0.3053,0.3064,0.3085,0.3088,0.3104,0.3111,0.3116,0.3123,0.3165,0.3176,0.3056,0.3056,0.3056,0,0,0.2781,0.281,0.2816,0.2854,0.2887,0.2921,0.2933,0.2964,0.2994,0.2991,0.3035,0.3049,0.3058,0.3091,0.3102,0.3087,0.3151,0.312,0.3125,0.3129,0.317,0.3181,0.3192,0.3059,0.3058,0.3058,0,0,0.2763,0.2784,0.2804,0.2836,0.2887,0.2918,0.2927,0.2978,0.3006,0.3043,0.3059,0.3091,0.3111,0.3137,0.3147,0.3195,0.3185,0.3197,0.3237,0.3278,0.3288,0.3297,0.3309,0.3319,0.3201,0.3201,0.3201,0,0.2741,0.2773,0.281,0.2844,0.2877,0.2918,0.295,0.2985,0.3032,0.3063,0.3059,0.3135,0.3137,0.3193,0.3216,0.321,0.3222,0.3204,0.3287,0.3296,0.3304,0.3315,0.3325,0.3204,0.3204,0.3204,0.3203,0,0.275,0.2779,0.2796,0.2859,0.2893,0.2927,0.2983,0.3024,0.3062,0.3099,0.3165,0.3189,0.3235,0.3246,0.3244,0.3313,0.3298,0.3289,0.3265,0.3319,0.3327,0.3336,0.3208,0.3207,0.3206,0.3206,0,0,0.2697,0.2787,0.2793,0.2829,0.2911,0.2935,0.3,0.3071,0.3117,0.317,0.3235,0.3284,0.3308,0.3323,0.3336,0.3374,0.3438,0.3361,0.3362,0.3371,0.3515,0.349,0.3498,0.3449,0.3451,0.3453,0.3494,0,0.2701,0.2757,0.281,0.2865,0.2904,0.2974,0.3027,0.3092,0.3156,0.3225,0.3278,0.3334,0.3334,0.3363,0.3406,0.3434,0.3468,0.3427,0.3464,0.3464,0.3434,0.351,0.3246,0.3261,0.3503,0.3504,0.3505,0,0.2703,0.2744,0.2797,0.2883,0.2908,0.2944,0.3049,0.3103,0.3209,0.326,0.3341,0.3383,0.3461,0.3444,0.353,0.3507,0.3518,0.3531,0.3533,0.35,0.3458,0.3248,0.3269,0.3521,0.352,0.3519,0.3518,0,0.2653,0.2738,0.278,0.2809,0.2907,0.2947,0.3004,0.3109,0.318,0.3286,0.3352,0.3438,0.3497,0.3538,0.3585,0.3562,0.3667,0.3633,0.3618,0.3614,0.3392,0.3366,0.3689,0.3689,0.3689,0.3689,0.3689,0,0.2643,0.2674,0.2755,0.2775,0.2831,0.2908,0.2982,0.3059,0.3184,0.3259,0.3362,0.3442,0.3529,0.3605,0.3614,0.366,0.3694,0.3644,0.3639,0.3402,0.3379,0.3603,0.3592,0.3691,0.369,0.369,0.369,0,0.2586,0.2641,0.2689,0.2779,0.2808,0.2843,0.2971,0.3028,0.3152,0.3259,0.3301,0.3473,0.3565,0.3641,0.3712,0.3704,0.3735,0.3734,0.3446,0.3408,0.3638,0.3629,0.3716,0.3715,0.3715,0.3715,0.3715,0,0.2564,0.2582,0.2669,0.2693,0.2734,0.28,0.285,0.2991,0.306,0.3264,0.331,0.3469,0.3554,0.368,0.3688,0.3714,0.3752,0.3473,0.3391,0.3662,0.3648,0.364,0.3632,0.31,0.3095,0.309,0.3087,0,0.252,0.255,0.2587,0.2634,0.2681,0.2733,0.2815,0.2873,0.3028,0.3134,0.327,0.3366,0.3516,0.3454,0.3525,0.3495,0.345,0.3392,0.3753,0.3155,0.3091,0.3075,0.3085,0.3049,0.3053,0.3056,0.3058,0.306,0.248,0.2488,0.2531,0.2568,0.2616,0.2643,0.2648,0.2744,0.2837,0.2947,0.3113,0.3158,0.323,0.3223,0.3148,0.3098,0.3327,0.3162,0.317,0.3184,0.3127,0.3069,0.301,0.3013,0.3016,0.3019,0.3021,0,0.2407,0.2426,0.2462,0.249,0.2488,0.2548,0.2603,0.2577,0.2614,0.2751,0.2839,0.2674,0.2684,0.274,0.2632,0.267,0.2594,0.2542,0.2403,0.2446,0.2482,0.2383,0.2071,0.2068,0.2064,0.2061,0,0,0.2369,0.2358,0.2372,0.2341,0.236,0.2311,0.2307,0.2295,0.2349,0.2343,0.2355,0.2569,0.2691,0.2335,0.2318,0.217,0.2275,0.209,0.2865,0.2746,0.2777,0.2873,0.2775,0,0,0,0,0]},{"header":{"parameterUnit":"m.s-1","parameterCategory":2,"la1":30.2991,"la2":30.254,"lo1":-89.0895,"lo2":-89.0444,"dy":0.0017,"dx":0.0017,"nx":28,"ny":28,"refTime":"2025-01-01T09:00:00:Z","depth":"2","parameterNumber":3,"parameterNumberName":"V-component_of_CURRENTS"},"data":[0,0,0,0,0,0,0,0,0,0,0,0,0,0,0,0,0,0,0,0,0,0,0,0,0,0,0,0,0,0,0,0,0,0,0,0,0,0,0,0,0,0,0,0,0,0,0,0,0,0,0,0,0,0,0,0,0,0,-0.008,-0.0081,0,-0.0163,-0.0164,-0.0165,-0.0224,-0.0225,-0.0225,-0.0225,-0.0299,-0.0301,-0.0303,0,0,0,0,0,0,0,0,0,0,0,0,0,-0.0048,-0.0049,-0.008,-0.0081,-0.0082,-0.0163,-0.0164,-0.0166,-0.0224,-0.0225,-0.0225,-0.0225,-0.0299,-0.0301,-0.0303,0,0,0,0,0,0,0,0,0,0,0,0,0,-0.0093,-0.0049,-0.008,-0.0118,-0.0122,-0.0162,-0.0164,-0.0166,-0.0224,-0.0225,-0.0225,-0.0225,-0.0298,-0.03,-0.0303,-0.0315,0,0,-0.0312,-0.0313,0,0,0,0,0,0,0,0,-0.009,-0.0094,-0.0112,-0.0116,-0.012,-0.0181,-0.018,-0.0214,-0.0224,-0.0189,-0.0225,-0.0225,-0.0256,-0.0262,-0.0282,-0.0319,-0.0322,-0.0312,-0.0313,-0.0315,-0.0315,0,0,0,0,0,0,0,-0.0087,-0.0092,-0.0116,-0.0112,-0.0118,-0.0157,-0.0163,-0.0188,-0.0223,-0.0192,-0.0196,-0.02,-0.0259,-0.028,-0.0285,-0.0323,-0.0312,-0.0314,-0.0316,-0.0317,-0.0377,-0.0377,0,0,0,0,0,0,-0.0066,-0.0088,-0.0114,-0.0119,-0.0102,-0.0157,-0.0164,-0.0164,-0.0223,-0.0231,-0.0199,-0.0202,-0.0275,-0.0281,-0.0287,-0.0292,-0.0315,-0.0317,-0.0319,-0.0377,-0.0377,-0.0377,0,0,0,0,0,0,-0.0064,-0.0067,-0.011,-0.0103,-0.0111,-0.0156,-0.0156,-0.0165,-0.0184,-0.0228,-0.0237,-0.0208,-0.0275,-0.0283,-0.0304,-0.0295,-0.0318,-0.0321,-0.0377,-0.0377,-0.0377,-0.0309,0,0,0,0,0,0,-0.0063,-0.0066,-0.0063,-0.0101,-0.011,-0.0119,-0.0156,-0.0166,-0.0184,-0.0189,-0.0238,-0.0245,-0.0276,-0.03,-0.0307,-0.03,-0.0323,-0.0377,-0.0377,-0.0377,-0.0311,-0.0306,-0.0302,0,0,0,0,0,-0.0062,-0.0049,-0.0062,-0.0066,-0.0103,-0.0118,-0.0126,-0.0163,-0.0184,-0.0183,-0.0221,-0.0244,-0.0304,-0.0302,-0.031,-0.0303,-0.0377,-0.0377,-0.0377,-0.0313,-0.0307,-0.0302,0,0,0,0,0,0,-0.0029,-0.0055,-0.007,-0.0065,-0.0084,-0.0126,-0.0132,-0.0157,-0.0189,-0.0196,-0.0241,-0.0251,-0.0268,-0.0295,-0.0291,-0.0322,-0.0346,-0.0347,-0.0294,-0.0289,-0.0285,-0.026,-0.0325,0,0,0,0,0,-0.002,-0.0021,-0.0048,-0.0043,-0.0051,-0.0092,-0.0106,-0.0127,-0.0158,-0.0173,-0.0209,-0.0247,-0.0275,-0.0288,-0.0319,-0.0331,-0.0355,-0.0335,-0.033,-0.0326,-0.0313,-0.0347,-0.0344,-0.0377,-0.0377,-0.0377,0,0,-0.0006,-0.002,-0.0021,-0.0037,-0.006,-0.0056,-0.0102,-0.0113,-0.0111,-0.0175,-0.0189,-0.0232,-0.0276,-0.0293,-0.0303,-0.0313,-0.0329,-0.0326,-0.0322,-0.0311,-0.0347,-0.0343,-0.034,-0.0377,-0.0377,-0.0377,0,0,0.003,0.001,0.0023,0.0013,-0.0009,-0.0031,-0.0029,-0.0068,-0.0088,-0.0105,-0.0153,-0.0185,-0.023,-0.0259,-0.0278,-0.0267,-0.0306,-0.0284,-0.0239,-0.0272,-0.0269,-0.0267,-0.0288,-0.0288,-0.028,-0.028,-0.0279,0,0.0047,0.0063,0.0026,0.0039,0.004,-0.0012,0.001,-0.0016,-0.0057,-0.0067,-0.0096,-0.0169,-0.021,-0.0226,-0.023,-0.0255,-0.0279,-0.0252,-0.0264,-0.0263,-0.0262,-0.0284,-0.0285,-0.0276,-0.0277,-0.0277,-0.0277,0,0.0096,0.0106,0.0114,0.0115,0.0111,0.0119,0.0088,0.0074,0.0039,0.001,-0.0021,-0.0088,-0.0127,-0.0153,-0.0189,-0.0203,-0.0224,-0.0255,-0.0272,-0.0254,-0.0279,-0.0282,-0.0272,-0.0273,-0.0274,-0.0274,0,0,0.0142,0.0148,0.0152,0.017,0.0152,0.016,0.016,0.0151,0.0158,0.0097,0.0098,0.0026,-0.0022,-0.0048,-0.0106,-0.0143,-0.0164,-0.0192,-0.0196,-0.0202,-0.0231,-0.025,-0.0255,-0.0201,-0.0201,-0.0201,-0.0249,0,0.0192,0.0241,0.0226,0.0275,0.0299,0.026,0.0272,0.0254,0.022,0.0204,0.0125,0.0099,0.0023,0.0,-0.0048,-0.0133,-0.0168,-0.0147,-0.0257,-0.0259,-0.0271,-0.0258,-0.0234,-0.0275,-0.0252,-0.0252,-0.0253,0,0.0249,0.0275,0.0331,0.0363,0.037,0.0386,0.0396,0.0398,0.0358,0.0329,0.0278,0.0216,0.0154,0.0081,-0.0042,-0.0027,-0.0119,-0.0191,-0.0195,-0.0236,-0.0283,-0.0293,-0.0281,-0.0257,-0.0257,-0.0256,-0.0256,0,0.0308,0.0352,0.0402,0.0412,0.0433,0.0448,0.0453,0.0433,0.0455,0.0402,0.041,0.0314,0.0278,0.015,-0.0003,-0.0023,-0.0141,-0.0185,-0.0286,-0.0289,-0.0299,-0.0302,-0.0269,-0.0269,-0.0269,-0.0269,-0.0269,0,0.0371,0.0412,0.0433,0.046,0.0528,0.0511,0.0567,0.055,0.055,0.059,0.0476,0.0487,0.0292,0.02,0.0041,-0.012,-0.0106,-0.0269,-0.0301,-0.0275,-0.0275,-0.0288,-0.0289,-0.0271,-0.027,-0.027,-0.027,0,0.0429,0.0439,0.0503,0.0538,0.0556,0.0599,0.0654,0.0696,0.0673,0.0721,0.0714,0.0628,0.0502,0.0307,0.0106,-0.0044,-0.021,-0.0275,-0.0226,-0.0252,-0.0347,-0.0345,-0.0385,-0.0386,-0.0387,-0.0387,-0.0388,0,0.0462,0.05,0.0566,0.0612,0.0629,0.0691,0.0743,0.0752,0.0807,0.0816,0.0856,0.0754,0.0703,0.0402,0.0114,-0.0154,-0.0201,-0.0312,-0.0352,-0.033,-0.0358,-0.0354,-0.0351,-0.0339,-0.0339,-0.0339,-0.0339,0,0.0529,0.0547,0.0601,0.0698,0.0761,0.0846,0.0918,0.0988,0.1007,0.105,0.1088,0.1048,0.0761,0.0495,0.0116,-0.0074,-0.0271,-0.0324,-0.0311,-0.0313,-0.0291,-0.0317,-0.0315,-0.034,-0.034,-0.034,-0.034,-0.034,0.058,0.0631,0.07,0.0796,0.0876,0.0983,0.1065,0.1149,0.125,0.1313,0.1268,0.1207,0.0894,0.0419,0.0085,-0.0276,-0.0265,-0.0393,-0.0391,-0.0389,-0.0375,-0.0356,-0.0414,-0.0414,-0.0414,-0.0414,-0.0415,0,0.0648,0.0705,0.0797,0.0909,0.1009,0.1037,0.1178,0.1255,0.138,0.1424,0.1444,0.116,0.085,0.0483,-0.0043,-0.0353,-0.0383,-0.0457,-0.0422,-0.0418,-0.0416,-0.0403,-0.0449,-0.045,-0.0451,-0.0452,0,0,0.0685,0.0783,0.083,0.1002,0.1084,0.1221,0.1305,0.1409,0.1471,0.1517,0.1485,0.1402,0.0964,0.0584,0.0155,-0.0148,-0.0216,-0.0214,-0.0153,-0.0058,-0.0052,-0.0346,-0.0318,0,0,0,0,0]}],[{"header":{"parameterUnit":"m.s-1","parameterCategory":2,"la1":30.2991,"la2":30.254,"lo1":-89.0895,"lo2":-89.0444,"dy":0.0017,"dx":0.0017,"nx":28,"ny":28,"refTime":"2025-01-01T09:00:00:Z","depth":"4","parameterNumber":2,"parameterNumberName":"U-component_of_CURRENTS"},"data":[0,0,0,0,0,0,0,0,0,0,0,0,0,0,0,0,0,0,0,0,0,0,0,0,0,0,0,0,0,0,0,0,0,0,0,0,0,0,0,0,0,0,0,0,0,0,0,0,0,0,0,0,0,0,0,0,0,0,0.1742,0.1743,0,0.1796,0.1797,0.1797,0.1858,0.1859,0.1861,0.1862,0.1944,0.1945,0.1947,0,0,0,0,0,0,0,0,0,0,0,0,0,0.1643,0.1645,0.1742,0.1743,0.1744,0.1796,0.1797,0.1797,0.1858,0.186,0.1861,0.1862,0.1944,0.1945,0.1947,0,0,0,0,0,0,0,0,0,0,0,0,0,0.1689,0.1646,0.1742,0.1782,0.1786,0.1796,0.1797,0.1798,0.1858,0.186,0.1861,0.1863,0.1943,0.1945,0.1947,0.1926,0,0,0.1952,0.1953,0,0,0,0,0,0,0,0,0.1687,0.1693,0.1775,0.1779,0.1784,0.1824,0.1793,0.1843,0.1858,0.1829,0.1862,0.1863,0.1906,0.1911,0.1915,0.193,0.1934,0.1953,0.1954,0.1954,0.1955,0,0,0,0,0,0,0,0.1683,0.169,0.1762,0.1776,0.1781,0.1781,0.1789,0.1802,0.1857,0.1831,0.1836,0.1845,0.1909,0.1913,0.1918,0.1935,0.1953,0.1954,0.1955,0.1956,0.207,0.2071,0,0,0,0,0,0,0.1681,0.1688,0.176,0.1764,0.174,0.1781,0.1791,0.1808,0.1857,0.1866,0.1843,0.1847,0.1909,0.1916,0.1921,0.2015,0.1954,0.1956,0.1957,0.2068,0.207,0.2072,0,0,0,0,0,0,0.1679,0.1687,0.1758,0.1727,0.1737,0.1782,0.18,0.1808,0.1857,0.1866,0.1876,0.1889,0.1911,0.1918,0.1975,0.2014,0.1957,0.1959,0.2065,0.2068,0.2071,0.2128,0,0,0,0,0,0,0.1676,0.1686,0.1717,0.1728,0.1739,0.1796,0.1799,0.1808,0.1857,0.1864,0.1907,0.1914,0.1913,0.1972,0.1976,0.2016,0.196,0.2063,0.2067,0.207,0.2124,0.2133,0.214,0,0,0,0,0,0.1672,0.17,0.1718,0.1728,0.1773,0.1797,0.1804,0.1838,0.1858,0.1887,0.192,0.1915,0.1998,0.1975,0.198,0.202,0.2061,0.2066,0.207,0.212,0.2131,0.214,0,0,0,0,0,0,0.1677,0.1709,0.1729,0.1769,0.1798,0.1809,0.1841,0.1861,0.1907,0.1926,0.1935,0.1944,0.201,0.2007,0.1981,0.2065,0.2031,0.2036,0.2068,0.2078,0.2086,0.2092,0.1962,0,0,0,0,0,0.169,0.1723,0.1748,0.1786,0.1803,0.183,0.1852,0.1876,0.1906,0.193,0.1958,0.1991,0.2022,0.2046,0.2071,0.2111,0.2119,0.2142,0.215,0.2157,0.2167,0.2209,0.2222,0.2086,0.2086,0.2086,0,0,0.1703,0.1726,0.1747,0.179,0.1815,0.1843,0.1849,0.1894,0.1926,0.193,0.1998,0.2025,0.2042,0.2093,0.2122,0.2101,0.2204,0.2163,0.2168,0.2175,0.2215,0.2228,0.224,0.2089,0.2089,0.2088,0,0,0.1725,0.1767,0.1795,0.1823,0.187,0.1882,0.1905,0.1942,0.1976,0.2032,0.2048,0.2103,0.2146,0.2167,0.218,0.2247,0.2248,0.2263,0.2306,0.2347,0.2359,0.2369,0.2406,0.2418,0.2263,0.2263,0.2263,0,0.1742,0.1781,0.1809,0.184,0.187,0.1904,0.1939,0.1968,0.2024,0.2057,0.2068,0.2161,0.2178,0.2237,0.2265,0.2266,0.229,0.2264,0.2357,0.2367,0.2377,0.2412,0.2425,0.2267,0.2266,0.2266,0.2266,0,0.1768,0.1818,0.1838,0.1888,0.1923,0.1962,0.1999,0.2051,0.2095,0.2123,0.2212,0.224,0.2297,0.2312,0.2311,0.2389,0.2387,0.2364,0.2329,0.2394,0.2427,0.244,0.2271,0.227,0.2269,0.2268,0,0,0.1753,0.1841,0.1852,0.1888,0.1956,0.1979,0.2047,0.2107,0.2159,0.2222,0.2292,0.2353,0.2385,0.2403,0.2417,0.2452,0.2538,0.2444,0.2445,0.2475,0.2641,0.2478,0.2476,0.2537,0.254,0.2541,0.264,0,0.1769,0.1832,0.1876,0.1944,0.1977,0.204,0.2093,0.2158,0.2219,0.2293,0.2344,0.2417,0.2412,0.2459,0.2496,0.2534,0.2575,0.2514,0.2579,0.2581,0.2422,0.2485,0.2549,0.265,0.2653,0.2655,0.2656,0,0.1768,0.1814,0.1884,0.1975,0.1997,0.2048,0.2148,0.2203,0.2306,0.2361,0.2446,0.249,0.2577,0.2553,0.2655,0.2622,0.2645,0.266,0.2663,0.2498,0.244,0.2571,0.2679,0.2677,0.2676,0.2674,0.2673,0,0.1715,0.1814,0.1873,0.1905,0.2009,0.2068,0.213,0.2232,0.2296,0.2419,0.2489,0.2578,0.2653,0.2695,0.2743,0.2716,0.2836,0.2794,0.2669,0.2658,0.2749,0.2737,0.2862,0.2862,0.2861,0.2861,0.2861,0,0.1687,0.1738,0.1862,0.189,0.1969,0.2053,0.2147,0.2226,0.235,0.2421,0.2529,0.2595,0.2697,0.2772,0.2784,0.277,0.2876,0.269,0.2673,0.2772,0.2762,0.2759,0.2745,0.2865,0.2864,0.2863,0.2863,0,0.1614,0.1697,0.177,0.1899,0.1947,0.2004,0.2157,0.2215,0.2352,0.2455,0.2507,0.2653,0.2735,0.2813,0.2891,0.2815,0.2818,0.2786,0.2911,0.2899,0.2603,0.2592,0.2645,0.2641,0.2636,0.2633,0.263,0,0.1579,0.1612,0.1761,0.1809,0.1878,0.1982,0.2048,0.2199,0.226,0.2458,0.2489,0.2642,0.2711,0.27,0.2783,0.2801,0.2765,0.2754,0.2649,0.2603,0.2583,0.2578,0.2573,0.2623,0.2622,0.2621,0.262,0,0.1509,0.158,0.1642,0.1742,0.1826,0.1902,0.2011,0.2046,0.2207,0.2359,0.2413,0.2459,0.2549,0.259,0.2636,0.2636,0.2747,0.271,0.2717,0.2618,0.2577,0.256,0.2559,0.2606,0.2608,0.2609,0.261,0,0.1463,0.1486,0.1579,0.1652,0.1752,0.1789,0.186,0.1929,0.2011,0.2219,0.2229,0.2379,0.2516,0.2507,0.2542,0.2538,0.2487,0.2394,0.2417,0.2434,0.2316,0.2229,0.2148,0,0,0,0,0,0.1401,0.1414,0.1478,0.1547,0.1641,0.1694,0.1818,0.1888,0.2046,0.2028,0.2122,0.2185,0.2237,0.2317,0.2268,0.2451,0.2501,0.2385,0.2407,0.2526,0.2542,0.2421,0,0,0,0,0,0,0.1357,0.1411,0.1435,0.1445,0.147,0.155,0.1619,0.1725,0.1719,0.1888,0.1925,0.2056,0.2139,0.2241,0.2226,0.2251,0.2221,0.2483,0.2477,0.2516,0.2531,0.2545,0.2426,0,0,0,0,0]},{"header":{"parameterUnit":"m.s-1","parameterCategory":2,"la1":30.2991,"la2":30.254,"lo1":-89.0895,"lo2":-89.0444,"dy":0.0017,"dx":0.0017,"nx":28,"ny":28,"refTime":"2025-01-01T09:00:00:Z","depth":"4","parameterNumber":3,"parameterNumberName":"V-component_of_CURRENTS"},"data":[0,0,0,0,0,0,0,0,0,0,0,0,0,0,0,0,0,0,0,0,0,0,0,0,0,0,0,0,0,0,0,0,0,0,0,0,0,0,0,0,0,0,0,0,0,0,0,0,0,0,0,0,0,0,0,0,0,0,0.0168,0.0167,0,0.0146,0.0146,0.0146,0.0128,0.0128,0.0128,0.0128,0.0079,0.0078,0.0076,0,0,0,0,0,0,0,0,0,0,0,0,0,0.0194,0.0193,0.0168,0.0167,0.0167,0.0146,0.0146,0.0146,0.0128,0.0128,0.0128,0.0127,0.0079,0.0078,0.0076,0,0,0,0,0,0,0,0,0,0,0,0,0,0.0179,0.0193,0.0168,0.0155,0.0154,0.0146,0.0146,0.0146,0.0128,0.0128,0.0128,0.0127,0.0079,0.0078,0.0076,0.0073,0,0,0.0071,0.007,0,0,0,0,0,0,0,0,0.018,0.0178,0.0158,0.0156,0.0155,0.0139,0.0137,0.012,0.0128,0.0139,0.0128,0.0127,0.0096,0.0093,0.0091,0.0071,0.0069,0.0071,0.007,0.0069,0.0069,0,0,0,0,0,0,0,0.0181,0.0179,0.016,0.0157,0.0156,0.0151,0.0148,0.0134,0.012,0.0138,0.0136,0.0133,0.0095,0.0093,0.009,0.0068,0.0071,0.007,0.0069,0.0068,0.0034,0.0034,0,0,0,0,0,0,0.0182,0.018,0.016,0.0159,0.0166,0.015,0.0148,0.0145,0.012,0.0116,0.0133,0.0132,0.0096,0.0092,0.0088,0.0088,0.0069,0.0068,0.0067,0.0034,0.0034,0.0034,0,0,0,0,0,0,0.0183,0.0181,0.0161,0.0168,0.0165,0.015,0.0147,0.0145,0.0141,0.0117,0.0113,0.0133,0.0095,0.009,0.0076,0.0086,0.0067,0.0066,0.0034,0.0034,0.0034,0.0086,0,0,0,0,0,0,0.0184,0.0181,0.0181,0.0169,0.0165,0.0159,0.0147,0.0144,0.014,0.0138,0.0115,0.011,0.0095,0.0079,0.0075,0.0083,0.0064,0.0034,0.0034,0.0034,0.0084,0.0088,0.0091,0,0,0,0,0,0.0185,0.0188,0.0181,0.0179,0.0165,0.0159,0.0157,0.0146,0.014,0.0141,0.0125,0.0111,0.0077,0.0078,0.0073,0.0081,0.0034,0.0034,0.0034,0.0082,0.0087,0.0091,0,0,0,0,0,0,0.0196,0.0186,0.0178,0.0177,0.0169,0.0156,0.0157,0.0148,0.0137,0.0135,0.0113,0.0107,0.0098,0.008,0.0082,0.007,0.0053,0.0052,0.0091,0.0095,0.0098,0.0111,0.0063,0,0,0,0,0,0.0199,0.02,0.0187,0.0185,0.0183,0.017,0.0167,0.0159,0.0147,0.0142,0.0128,0.011,0.0095,0.0088,0.0071,0.0067,0.0037,0.0067,0.0071,0.0074,0.008,0.0043,0.0043,0.0035,0.0035,0.0035,0,0,0.0202,0.0197,0.0196,0.0188,0.0182,0.019,0.0168,0.0165,0.0173,0.0138,0.0145,0.012,0.0095,0.009,0.0085,0.0078,0.0058,0.0074,0.0077,0.0081,0.0043,0.0044,0.0044,0.0035,0.0035,0.0035,0,0,0.0218,0.0205,0.0216,0.0214,0.0207,0.0202,0.0202,0.0192,0.0189,0.0187,0.0164,0.0146,0.0128,0.0113,0.0102,0.0113,0.0076,0.0106,0.0137,0.0102,0.0102,0.0102,0.0058,0.0054,0.011,0.0111,0.0111,0,0.0222,0.0235,0.0218,0.023,0.0236,0.0211,0.023,0.0223,0.021,0.021,0.0195,0.0164,0.014,0.0134,0.0138,0.0122,0.0091,0.0127,0.0107,0.0106,0.0105,0.006,0.0055,0.0113,0.0113,0.0112,0.0112,0,0.025,0.0261,0.0268,0.0279,0.0282,0.0291,0.0282,0.0281,0.0271,0.0263,0.025,0.0214,0.0196,0.0184,0.0165,0.0152,0.0128,0.0114,0.0099,0.011,0.0061,0.0055,0.0117,0.0116,0.0115,0.0114,0,0,0.0266,0.0285,0.0289,0.031,0.0311,0.032,0.033,0.0336,0.0347,0.032,0.0327,0.0292,0.0265,0.025,0.0218,0.0187,0.015,0.0154,0.015,0.0116,0.0062,0.0048,0.0039,0.0132,0.0132,0.0131,0.0028,0,0.0297,0.0337,0.0337,0.038,0.0403,0.039,0.0407,0.0404,0.0392,0.039,0.0343,0.0335,0.0293,0.0283,0.0245,0.0177,0.0137,0.0179,0.0052,0.0049,0.0039,0.0032,0.0129,0.0023,0.0021,0.002,0.0019,0,0.0331,0.0356,0.0404,0.0443,0.0451,0.0471,0.0493,0.0503,0.0485,0.0471,0.0443,0.0406,0.036,0.0321,0.0206,0.0234,0.0154,0.0094,0.0088,0.0055,0.0023,0.001,0.0007,0.0008,0.0009,0.001,0.0011,0,0.0362,0.0407,0.0451,0.0463,0.0495,0.0515,0.053,0.0528,0.055,0.052,0.0525,0.0456,0.0427,0.0322,0.0201,0.0201,0.0066,0.0048,-0.0045,-0.0047,-0.0026,-0.0025,-0.0039,-0.0039,-0.0038,-0.0038,-0.0038,0,0.0398,0.0435,0.0471,0.0494,0.0554,0.0557,0.0608,0.0604,0.0612,0.0638,0.0571,0.0565,0.0426,0.0338,0.0215,0.0067,0.0072,-0.0042,-0.0073,-0.0004,0.0001,-0.0031,-0.0029,-0.0042,-0.0041,-0.004,-0.004,0,0.0424,0.0445,0.0502,0.0548,0.057,0.061,0.067,0.0703,0.0695,0.0724,0.072,0.0646,0.0521,0.0375,0.0198,0.0093,-0.0051,-0.0107,-0.0025,-0.0049,-0.0148,-0.0142,-0.0224,-0.0225,-0.0226,-0.0227,-0.0228,0,0.0438,0.047,0.0544,0.0583,0.0608,0.067,0.0716,0.074,0.0775,0.0772,0.0786,0.0688,0.0615,0.0359,0.0191,-0.005,-0.0084,-0.0168,-0.0158,-0.0144,-0.0167,-0.0159,-0.0151,-0.023,-0.023,-0.023,-0.0231,0,0.0467,0.0494,0.054,0.0624,0.0685,0.0757,0.0819,0.0853,0.0876,0.088,0.0839,0.071,0.0566,0.0362,0.0174,0.0002,-0.0117,-0.018,-0.0179,-0.0171,-0.0153,-0.0172,-0.0163,-0.0234,-0.0234,-0.0233,-0.0233,0,0.0489,0.0525,0.0586,0.0662,0.0742,0.0811,0.0846,0.0883,0.0917,0.091,0.0892,0.0736,0.0648,0.0388,0.0216,0.0044,-0.0005,-0.0066,-0.0072,-0.007,0.0005,0.0052,0.0006,0,0,0,0,0,0.0506,0.0548,0.0618,0.0699,0.0779,0.0827,0.0903,0.0928,0.0955,0.0936,0.0917,0.0781,0.0524,0.0415,0.024,0.018,-0.0044,-0.0034,-0.0119,-0.0256,-0.0251,-0.0191,0,0,0,0,0,0,0.0515,0.0581,0.0616,0.0716,0.0775,0.0866,0.0916,0.0936,0.0923,0.0922,0.0793,0.073,0.0485,0.0629,0.0236,0.0184,0.0102,-0.0149,-0.0153,-0.0258,-0.0254,-0.0251,-0.0187,0,0,0,0,0]}]]